Weather in Gostovskiy

Russia / Kirov Oblast     58°19′52″N   46°41′03″E
temp.,
°C
wind,
m/s
gust,
m/s
humid.,
%
clouds,
%
prec.,
mm/h
press.,
hPa
HPBL,
m
25 february, thu
thu2500:00−20s269697 0.0 1031188
03:00−20s389698 0.0 1029262
06:00−19sse41092100 0.0 1025356
09:00−18sse51096100 0.6 1022402
12:00−16sse51194100 1.1 1019552
15:00−15sse5994100 2.1 1018655
18:00−15sse4894100 0.7 1016623
21:00−16se3994100 0.8 1017445
26 february, fri
fri2600:00−16se3795100 0.4 1015393
03:00−17se3896100 0.6 1016328
06:00−18se389699 0.2 1014300
09:00−16se499499 0.2 1013346
12:00−13se5992100 0.2 1009427
15:00−12se61294100 0.6 1005491
18:00−12se61494100 2.2 1000600
21:00−11se61294100 6.9 996594
27 february, sat
sat2700:00−10ese51094100 2.1 994467
03:00−11e4994100 3.2 994414
06:00−12ene499399 0.3 993416
09:00−13ne599399 0.6 996481
12:00−12ne4890100 0.2 998596
15:00−12nne4891100 0.4 1001658
18:00−15n2596100 0.1 100499
21:00−18n239780 0.1 100680
28 february, sun
sun2800:00−19n23970 0.0 100779
03:00−20n25980 0.0 1009107
06:00−21n25980 0.0 1010108
09:00−18n35940 0.0 1011230
12:00−13n359168 0.0 1013419
15:00−12n378984 0.1 1014626
18:00−15n2596100 0.0 101692
21:00−18n239773 0.1 101926
1 march, mon
mon100:00−20nnw23980 0.0 102020
03:00−20nw22980 0.0 102120
06:00−21wnw22980 0.0 102220
09:00−16w129510 0.0 1022127
12:00−9wsw249588 0.0 1022290
15:00−6sw379594 0.1 1020407
18:00−5wsw41095100 0.4 1018595
21:00−3wsw41196100 1.1 1016581